TimeEST,TemperatureF,Dew PointF,Humidity,Sea Level PressureIn,VisibilityMPH,Wind Direction,Wind SpeedMPH,Gust SpeedMPH,PrecipitationIn,Events,Conditions,WindDirDegrees,DateUTC
12:15 AM,35.6,20.1,53,29.86,10.0,WNW,3.5,-,N/A,,Scattered Clouds,300,2012-12-22 05:15:00
12:35 AM,35.6,20.3,54,29.86,10.0,WNW,5.8,-,N/A,,Scattered Clouds,300,2012-12-22 05:35:00
12:55 AM,35.6,20.3,54,29.86,10.0,WNW,11.5,23.0,N/A,,Scattered Clouds,300,2012-12-22 05:55:00
1:15 AM,35.4,20.3,54,29.87,10.0,NW,9.2,16.1,N/A,,Clear,310,2012-12-22 06:15:00
1:35 AM,35.1,20.7,56,29.88,10.0,WNW,5.8,-,N/A,,Clear,290,2012-12-22 06:35:00
1:55 AM,34.9,20.8,57,29.89,10.0,NW,6.9,16.1,N/A,,Clear,310,2012-12-22 06:55:00
2:15 AM,34.7,20.5,56,29.89,10.0,WNW,6.9,-,N/A,,Clear,290,2012-12-22 07:15:00
2:35 AM,34.5,20.7,57,29.90,10.0,WNW,5.8,-,N/A,,Clear,300,2012-12-22 07:35:00
2:55 AM,34.3,20.1,56,29.91,10.0,WNW,9.2,-,N/A,,Clear,300,2012-12-22 07:55:00
3:15 AM,34.2,19.9,56,29.91,10.0,WNW,3.5,-,N/A,,Clear,300,2012-12-22 08:15:00
3:35 AM,33.6,20.1,58,29.92,10.0,WNW,3.5,-,N/A,,Clear,300,2012-12-22 08:35:00
3:55 AM,33.8,20.3,58,29.92,10.0,NW,4.6,-,N/A,,Clear,310,2012-12-22 08:55:00
4:15 AM,33.4,20.1,58,29.93,10.0,NW,6.9,-,N/A,,Clear,320,2012-12-22 09:15:00
4:35 AM,33.4,19.9,58,29.93,10.0,NW,5.8,21.9,N/A,,Clear,320,2012-12-22 09:35:00
4:55 AM,33.3,19.4,57,29.93,10.0,NW,8.1,-,N/A,,Clear,310,2012-12-22 09:55:00
5:15 AM,32.9,19.2,57,29.94,10.0,NW,6.9,19.6,N/A,,Clear,320,2012-12-22 10:15:00
5:35 AM,32.5,19.2,58,29.96,10.0,NW,3.5,-,N/A,,Clear,320,2012-12-22 10:35:00
5:55 AM,32.0,19.0,59,29.96,10.0,NW,4.6,-,N/A,,Clear,310,2012-12-22 10:55:00
6:15 AM,32.0,19.0,59,29.97,10.0,NW,6.9,-,N/A,,Clear,310,2012-12-22 11:15:00
6:35 AM,32.0,18.9,58,29.98,10.0,NW,5.8,-,N/A,,Clear,320,2012-12-22 11:35:00
6:55 AM,31.6,18.9,59,29.99,10.0,WNW,3.5,-,N/A,,Clear,290,2012-12-22 11:55:00
7:15 AM,31.1,18.7,60,30.00,10.0,WNW,3.5,-,N/A,,Clear,300,2012-12-22 12:15:00
7:35 AM,30.2,18.7,62,30.01,10.0,Calm,Calm,-,N/A,,Clear,0,2012-12-22 12:35:00
7:55 AM,30.9,18.9,61,30.02,10.0,Calm,Calm,-,N/A,,Clear,0,2012-12-22 12:55:00
8:15 AM,32.0,18.7,58,30.03,10.0,Calm,Calm,-,N/A,,Clear,0,2012-12-22 13:15:00
8:35 AM,32.9,19.0,57,30.04,10.0,Calm,Calm,-,N/A,,Clear,0,2012-12-22 13:35:00
8:55 AM,34.2,18.9,54,30.05,10.0,Calm,Calm,-,N/A,,Clear,0,2012-12-22 13:55:00
9:15 AM,35.6,18.9,51,30.06,10.0,NNW,4.6,-,N/A,,Clear,330,2012-12-22 14:15:00
9:35 AM,36.5,18.0,47,30.06,10.0,WNW,6.9,-,N/A,,Clear,300,2012-12-22 14:35:00
9:55 AM,37.4,17.8,45,30.08,10.0,WNW,5.8,-,N/A,,Clear,290,2012-12-22 14:55:00
10:15 AM,38.5,17.6,43,30.07,10.0,West,4.6,-,N/A,,Clear,270,2012-12-22 15:15:00
10:35 AM,38.8,17.8,43,30.07,10.0,West,4.6,-,N/A,,Clear,260,2012-12-22 15:35:00
10:55 AM,39.4,17.4,41,30.07,10.0,WSW,3.5,-,N/A,,Clear,240,2012-12-22 15:55:00
11:15 AM,41.0,18.0,40,30.06,10.0,WNW,4.6,-,N/A,,Clear,300,2012-12-22 16:15:00
11:35 AM,42.3,18.0,38,30.06,10.0,NW,3.5,-,N/A,,Clear,310,2012-12-22 16:35:00
11:55 AM,42.6,18.3,38,30.05,10.0,SW,4.6,-,N/A,,Clear,230,2012-12-22 16:55:00
12:15 PM,44.6,18.3,35,30.04,10.0,West,3.5,-,N/A,,Clear,270,2012-12-22 17:15:00
12:35 PM,46.6,18.5,33,30.03,10.0,West,5.8,-,N/A,,Clear,280,2012-12-22 17:35:00
12:55 PM,47.1,18.0,31,30.02,10.0,NW,3.5,-,N/A,,Clear,320,2012-12-22 17:55:00
1:15 PM,47.5,16.9,30,30.01,10.0,WNW,6.9,-,N/A,,Clear,290,2012-12-22 18:15:00
1:35 PM,48.0,18.1,31,30.00,10.0,Calm,Calm,-,N/A,,Clear,0,2012-12-22 18:35:00
1:55 PM,49.5,18.1,29,30.00,10.0,WNW,3.5,-,N/A,,Clear,290,2012-12-22 18:55:00
2:15 PM,49.1,17.2,28,30.00,10.0,WNW,3.5,-,N/A,,Clear,290,2012-12-22 19:15:00
2:35 PM,51.3,17.4,26,30.01,10.0,Calm,Calm,-,N/A,,Clear,0,2012-12-22 19:35:00
2:55 PM,53.2,17.8,25,30.01,10.0,SSW,4.6,-,N/A,,Clear,200,2012-12-22 19:55:00
3:15 PM,53.2,18.5,26,30.01,10.0,SW,5.8,-,N/A,,Clear,220,2012-12-22 20:15:00
3:35 PM,52.7,19.2,27,30.01,10.0,SSW,9.2,-,N/A,,Clear,210,2012-12-22 20:35:00
3:55 PM,51.3,19.2,28,30.02,10.0,SW,5.8,16.1,N/A,,Clear,220,2012-12-22 20:55:00
4:15 PM,50.9,19.4,29,30.03,10.0,SW,6.9,-,N/A,,Clear,220,2012-12-22 21:15:00
4:35 PM,50.4,18.7,29,30.04,10.0,SW,8.1,-,N/A,,Clear,230,2012-12-22 21:35:00
4:55 PM,49.6,18.3,29,30.04,10.0,WSW,5.8,-,N/A,,Clear,250,2012-12-22 21:55:00
5:35 PM,47.3,18.0,31,30.05,10.0,Calm,Calm,-,N/A,,Clear,0,2012-12-22 22:35:00
5:55 PM,45.0,18.1,34,30.06,10.0,Calm,Calm,-,N/A,,Clear,0,2012-12-22 22:55:00
6:15 PM,42.6,18.9,39,30.07,10.0,Calm,Calm,-,N/A,,Clear,0,2012-12-22 23:15:00
6:35 PM,40.3,18.9,42,30.07,10.0,Calm,Calm,-,N/A,,Clear,0,2012-12-22 23:35:00
6:55 PM,40.8,19.2,42,30.08,10.0,Calm,Calm,-,N/A,,Clear,0,2012-12-22 23:55:00
7:15 PM,39.0,19.6,46,30.09,10.0,Calm,Calm,-,N/A,,Clear,0,2012-12-23 00:15:00
7:35 PM,39.6,18.0,42,30.09,10.0,Calm,Calm,-,N/A,,Clear,0,2012-12-23 00:35:00
7:55 PM,39.2,15.8,39,30.09,10.0,Calm,Calm,-,N/A,,Clear,0,2012-12-23 00:55:00
8:15 PM,38.8,15.3,38,30.08,10.0,Calm,Calm,-,N/A,,Clear,0,2012-12-23 01:15:00
8:35 PM,37.2,15.3,41,30.09,10.0,Calm,Calm,-,N/A,,Clear,0,2012-12-23 01:35:00
8:55 PM,37.6,15.3,40,30.09,10.0,Calm,Calm,-,N/A,,Clear,0,2012-12-23 01:55:00
9:15 PM,36.7,14.9,41,30.10,10.0,Calm,Calm,-,N/A,,Clear,0,2012-12-23 02:15:00
9:35 PM,34.3,14.9,45,30.10,10.0,Calm,Calm,-,N/A,,Clear,0,2012-12-23 02:35:00
9:55 PM,33.1,16.2,50,30.10,10.0,Calm,Calm,-,N/A,,Clear,0,2012-12-23 02:55:00
10:15 PM,32.4,14.9,49,30.10,10.0,Calm,Calm,-,N/A,,Clear,0,2012-12-23 03:15:00
10:35 PM,31.3,16.9,55,30.10,10.0,Calm,Calm,-,N/A,,Clear,0,2012-12-23 03:35:00
10:55 PM,30.2,17.6,60,30.11,10.0,Calm,Calm,-,N/A,,Clear,0,2012-12-23 03:55:00
11:15 PM,30.6,18.0,60,30.11,10.0,Calm,Calm,-,N/A,,Clear,0,2012-12-23 04:15:00
11:35 PM,28.8,18.5,66,30.11,10.0,Calm,Calm,-,N/A,,Clear,0,2012-12-23 04:35:00
11:55 PM,27.9,16.5,62,30.11,10.0,Calm,Calm,-,N/A,,Clear,0,2012-12-23 04:55:00